Date,TemperatureHighF,TemperatureAvgF,TemperatureLowF,DewpointHighF,DewpointAvgF,DewpointLowF,HumidityHigh,HumidityAvg,HumidityLow,PressureMaxIn,PressureMinIn,WindSpeedMaxMPH,WindSpeedAvgMPH,GustSpeedMaxMPH,PrecipitationSumIn
2013-8-1,79.0,65.0,55.0,62.0,58.1,54.0,99,81,54,30.02,29.88,5,1,10,0.01
2013-8-2,83.0,65.5,55.0,63.0,58.1,54.0,99,80,47,29.96,29.89,5,1,11,0.01
2013-8-3,83.0,66.7,56.0,63.0,58.6,55.0,99,78,48,29.99,29.91,5,1,11,0.00
2013-8-4,84.0,66.6,54.0,62.0,56.7,53.0,100,75,40,30.01,29.91,4,1,12,0.01
2013-8-5,86.0,65.9,53.0,61.0,54.4,48.0,95,73,29,29.99,29.90,5,1,12,0.01
2013-8-6,82.0,65.9,54.0,61.0,57.1,53.0,100,76,45,30.03,29.95,5,1,12,0.01
2013-8-7,83.0,64.3,52.0,61.0,55.8,51.0,98,78,40,30.06,29.96,4,1,12,0.01
2013-8-8,83.0,65.5,55.0,59.0,55.7,52.0,93,74,40,29.98,29.89,5,1,13,0.01
2013-8-9,80.0,66.8,54.0,60.0,56.4,53.0,97,72,47,29.95,29.89,5,1,14,0.01
2013-8-10,82.0,66.4,54.0,60.0,56.7,51.0,92,73,47,30.01,29.94,4,1,12,0.01
2013-8-11,85.0,68.3,54.0,61.0,57.4,52.0,97,72,40,29.99,29.88,4,1,12,0.01
2013-8-12,85.0,67.0,56.0,62.0,57.8,54.0,97,76,44,29.97,29.88,6,1,11,0.01
2013-8-13,87.0,69.1,55.0,62.0,55.7,-99.9,96,70,42,29.97,29.86,4,1,10,0.01
2013-8-14,74.0,60.7,57.0,61.0,50.1,-99.9,92,77,56,29.92,29.83,2,0,12,0.01
2013-8-15,90.0,59.4,54.0,64.0,39.6,-99.9,97,68,34,29.94,29.87,4,0,9,0.01
2013-8-16,91.0,65.2,61.0,61.0,50.6,-99.9,88,69,30,29.95,29.89,2,0,11,0.00
2013-8-17,89.0,68.9,59.0,59.0,54.0,-99.9,88,65,31,29.94,29.80,3,0,9,0.00
2013-8-18,88.0,67.6,59.0,59.0,56.5,52.0,90,71,32,29.90,29.79,2,0,10,0.00
2013-8-19,83.0,64.0,57.0,63.0,47.2,-99.9,97,74,48,29.94,29.85,4,1,11,0.00
2013-8-20,89.0,66.3,56.0,61.0,54.3,-99.9,97,74,31,29.93,29.84,4,1,10,0.01
2013-8-21,91.0,68.5,56.0,59.0,54.0,44.0,92,67,21,29.92,29.83,6,1,11,0.01
2013-8-22,94.0,74.0,58.0,55.0,51.2,38.0,83,52,14,29.91,29.81,4,1,13,0.00
2013-8-23,93.0,71.7,59.0,56.0,50.9,44.0,70,51,19,29.87,29.73,3,0,11,0.00
2013-8-24,92.0,71.1,60.0,59.0,50.9,-99.9,78,55,23,29.86,29.76,5,1,10,0.00
2013-8-25,92.0,72.0,59.0,57.0,50.6,44.0,78,52,21,29.92,29.83,5,1,12,0.00
2013-8-26,87.0,71.1,65.0,52.0,42.8,34.0,58,37,21,29.93,29.86,3,0,5,0.00
2013-8-27,91.0,76.0,72.0,58.0,49.3,44.0,47,39,32,29.86,29.80,5,0,11,0.00
2013-8-28,95.0,85.7,73.0,61.0,51.7,41.0,44,32,20,29.89,29.81,5,1,14,0.00
2013-8-29,99.0,89.8,76.0,58.0,53.4,48.0,53,31,20,29.94,29.87,5,1,12,0.00
2013-8-30,98.0,88.3,78.0,68.0,63.0,55.0,59,44,24,29.96,29.92,5,1,14,0.00
2013-8-31,94.0,80.8,73.0,70.0,64.2,-99.9,74,60,45,29.97,29.88,5,1,12,0.00